EW4885 Weather Reports


Display with metric or nautical units.
time (UTC)temp
F
wind
direction
speed
MPH
gust
MPH
rain 1hr
in
rain 24hr
in
rain mn
in
humidity
%
barometer
mb
20260904211527 71 333 0.0 0.0 0.00 0.00 0.00 71 1017.5
20260904210026 72 333 0.0 0.0 0.00 0.00 0.00 70 1017.4
20260904204522 73 323 1.0 3.0 0.00 0.00 0.00 69 1017.2
20260904203031 73 360 1.0 3.0 0.00 0.00 0.00 68 1016.9
20260904201521 74 93 0.0 2.0 0.00 0.00 0.00 68 1016.7
20260904200022 75 85 2.0 3.0 0.00 0.00 0.00 67 1016.6
20260904194521 76 73 1.0 3.0 0.00 0.00 0.00 65 1016.5
20260904193021 76 316 2.0 4.0 0.00 0.00 0.00 64 1016.5
20260904191520 77 31 1.0 2.0 0.00 0.00 0.00 63 1016.2
20260904190019 79 86 0.0 2.0 0.00 0.00 0.00 60 1016.0
20260904184523 80 112 0.0 2.0 0.00 0.00 0.00 56 1015.7
20260904183018 82 117 0.0 2.0 0.00 0.00 0.00 53 1015.5
20260904181522 85 159 0.0 0.0 0.00 0.00 0.00 49 1015.4
20260904180037 87 229 0.0 2.0 0.00 0.00 0.00 44 1015.3
20260904174515 89 229 0.0 1.0 0.00 0.00 0.00 40 1015.1
20260904173024 90 229 1.0 3.0 0.00 0.00 0.00 37 1015.1
20260904171527 91 249 1.0 4.0 0.00 0.00 0.00 37 1015.0
20260904170014 91 189 2.0 4.0 0.00 0.00 0.00 35 1015.0
20260904164512 92 182 1.0 4.0 0.00 0.00 0.00 36 1015.0
20260904163016 92 237 2.0 5.0 0.00 0.00 0.00 33 1015.0
20260904161531 92 239 3.0 6.0 0.00 0.00 0.00 34 1015.0
20260904160034 93 160 2.0 7.0 0.00 0.00 0.00 33 1015.2
20260904154537 94 189 0.0 5.0 0.00 0.00 0.00 32 1015.3
20260904153033 94 216 2.0 7.0 0.00 0.00 0.00 32 1015.4
20260904151529 94 17 1.0 5.0 0.00 0.00 0.00 31 1015.5
20260904150024 94 213 2.0 7.0 0.00 0.00 0.00 33 1015.6
20260904144521 94 200 1.0 4.0 0.00 0.00 0.00 33 1015.8
20260904143020 93 126 1.0 8.0 0.00 0.00 0.00 32 1015.8
20260904141516 93 94 0.0 4.0 0.00 0.00 0.00 32 1016.0
20260904140015 93 241 3.0 6.0 0.00 0.00 0.00 32 1016.2
20260904134514 92 181 2.0 7.0 0.00 0.00 0.00 33 1016.3
20260904133009 92 192 2.0 4.0 0.00 0.00 0.00 34 1016.5
20260904131507 91 209 2.0 6.0 0.00 0.00 0.00 34 1016.6
20260904130004 91 269 3.0 6.0 0.00 0.00 0.00 36 1016.9
20260904124501 91 127 1.0 7.0 0.00 0.00 0.00 36 1017.1
20260904123059 90 317 1.0 4.0 0.00 0.00 0.00 37 1017.2
20260904121555 89 193 3.0 6.0 0.00 0.00 0.00 38 1017.4
20260904120059 88 118 3.0 5.0 0.00 0.00 0.00 38 1017.6
20260904114557 87 296 2.0 4.0 0.00 0.00 0.00 39 1017.7
20260904113047 87 105 2.0 5.0 0.00 0.00 0.00 40 1017.8
20260904111543 86 5 1.0 4.0 0.00 0.00 0.00 39 1018.1
20260904110041 86 211 0.0 5.0 0.00 0.00 0.00 39 1018.2
20260904104601 85 178 2.0 4.0 0.00 0.00 0.00 41 1018.5
20260904103035 83 289 0.0 4.0 0.00 0.00 0.00 42 1018.7
20260904101537 83 291 2.0 6.0 0.00 0.00 0.00 44 1018.8
20260904100026 83 128 1.0 3.0 0.00 0.00 0.00 44 1019.0
20260904094527 82 217 0.0 4.0 0.00 0.00 0.00 46 1019.0
20260904093017 82 129 2.0 4.0 0.00 0.00 0.00 47 1019.1
20260904091513 80 178 3.0 6.0 0.00 0.00 0.00 48 1019.2
20260904090015 78 159 3.0 6.0 0.00 0.00 0.00 51 1019.2
20260904084507 77 221 2.0 5.0 0.00 0.00 0.00 52 1019.3
20260904083002 76 186 2.0 6.0 0.00 0.00 0.00 54 1019.2
20260904081557 76 175 4.0 8.0 0.00 0.00 0.00 54 1019.2
20260904080111 73 157 3.0 7.0 0.00 0.00 0.00 59 1019.2
20260904074558 72 189 2.0 8.0 0.00 0.00 0.00 61 1019.2
20260904073044 70 145 2.0 5.0 0.00 0.00 0.00 66 1019.1
20260904071540 67 150 2.0 6.0 0.00 0.00 0.00 70 1019.1
20260904070041 64 159 0.0 0.0 0.00 0.00 0.00 77 1019.2
20260904064530 62 146 0.0 0.0 0.00 0.00 0.00 81 1019.2
20260904063027 61 132 0.0 0.0 0.00 0.00 0.00 83 1019.3
20260904061528 59 147 0.0 0.0 0.00 0.00 0.00 86 1019.4
20260904060020 58 147 0.0 0.0 0.00 0.00 0.00 87 1019.2
20260904054517 57 147 0.0 0.0 0.00 0.00 0.00 87 1019.2
20260904053011 57 134 0.0 0.0 0.00 0.00 0.00 87 1019.3
20260904051511 57 130 0.0 0.0 0.00 0.00 0.00 86 1019.3
20260904050024 57 124 0.0 0.0 0.00 0.00 0.00 86 1019.4
20260904044516 57 132 0.0 0.0 0.00 0.00 0.00 87 1019.3
20260904043007 57 127 0.0 0.0 0.00 0.00 0.00 87 1019.4
20260904041505 57 123 1.0 3.0 0.00 0.00 0.00 87 1019.6
20260904040004 57 136 0.0 0.0 0.00 0.00 0.00 87 1019.7
20260904034502 57 122 0.0 0.0 0.00 0.00 0.00 88 1019.8
20260904033107 57 142 0.0 0.0 0.00 0.00 0.00 88 1020.0
20260904031600 57 126 0.0 0.0 0.00 0.00 0.00 88 1020.0
20260904030059 58 128 0.0 0.0 0.00 0.00 0.00 88 1020.0
20260904024615 58 128 0.0 0.0 0.00 0.00 0.00 87 1020.1
20260904023104 58 123 0.0 0.0 0.00 0.00 0.00 87 1020.3
20260904021557 58 125 0.0 0.0 0.00 0.00 0.00 87 1020.4
20260904020052 58 125 0.0 0.0 0.00 0.00 0.00 87 1020.5
20260904014604 58 125 0.0 0.0 0.00 0.00 0.00 87 1020.7
20260904013049 59 125 0.0 0.0 0.00 0.00 0.00 86 1020.7
20260904011549 59 121 0.0 0.0 0.00 0.00 0.00 85 1020.8
20260904010049 59 121 0.0 0.0 0.00 0.00 0.00 84 1020.8
20260904004544 60 120 0.0 0.0 0.00 0.00 0.00 85 1020.9
20260904003042 60 121 0.0 0.0 0.00 0.00 0.00 84 1021.0
20260904001541 60 121 0.0 0.0 0.00 0.00 0.00 83 1021.1
20260903234538 61 121 0.0 0.0 0.00 0.00 0.00 83 1021.3
20260903233048 61 121 0.0 0.0 0.00 0.00 0.00 82 1021.3
20260903231534 62 121 0.0 0.0 0.00 0.00 0.00 81 1021.3
20260903230033 62 121 0.0 0.0 0.00 0.00 0.00 80 1021.2
20260903224540 63 121 0.0 0.0 0.00 0.00 0.00 80 1021.3
20260903223043 63 121 0.0 0.0 0.00 0.00 0.00 79 1021.4
20260903221528 64 121 0.0 0.0 0.00 0.00 0.00 78 1021.4
20260903220024 64 121 0.0 0.0 0.00 0.00 0.00 77 1021.3
20260903214524 65 121 0.0 0.0 0.00 0.00 0.00 75 1021.3
20260903213039 65 120 0.0 0.0 0.00 0.00 0.00 74 1021.5